Regional Weather Roundup
Issued by NWS

Home | Current Version | Previous Version | Text Only | Print | Product List | Glossary Off
Versions: 1 2 3 4 5 6 7 8 9 10 11 12 13 14 15 16 17 18 19 20 21 22 23 24 25 26 27 28 29 30 31 32 33 34 35 36 37 38 39 40 41 42 43 44 45 46 47 48 49 50

000
ASUS43 KFSD 310002
RWRSD

WEATHER ROUNDUP FOR SOUTH DAKOTA
NATIONAL WEATHER SERVICE SIOUX FALLS SD
700 PM CDT WED JUL 30 2014

NOTE: "FAIR" INDICATES FEW OR NO CLOUDS BELOW 12,000 FEET WITH NO
SIGNIFICANT WEATHER AND/OR OBSTRUCTIONS TO VISIBILITY.


SDZ001>005-009-010-012>017-310100-
NORTHWEST AND NORTH CENTRAL SOUTH DAKOTA

CITY           SKY/WX    TMP DP  RH WIND       PRES   REMARKS
BUFFALO          N/A     81  50  33 E7        30.10F
FAITH            N/A     83  52  34 NE10      30.11S
MOBRIDGE       MOSUNNY   81  56  42 NE6       30.06F
$$

SDZ012>016-024>037-041>051-057-063-072>074-310100-
SOUTHWEST AND SOUTH CENTRAL SOUTH DAKOTA

CITY           SKY/WX    TMP DP  RH WIND       PRES   REMARKS
RAPID CTY ARPT PTSUNNY   83  47  28 N12       30.14F
PIERRE         MOSUNNY   85  53  33 SE10      30.04F
CUSTER         PTSUNNY   72  49  44 E8        30.29F
ELLSWORTH AFB  MOSUNNY   84  45  25 N14       30.15S
PHILIP         MOSUNNY   88  46  23 NW12      30.06S
PINE RIDGE     PTSUNNY   73  51  46 CALM      30.16F
WINNER         FAIR      87  48  25 VRB3      30.08F
$$

SDZ004>011-016>023-039-040-310100-
NORTHEAST SOUTH DAKOTA

CITY           SKY/WX    TMP DP  RH WIND       PRES   REMARKS
ABERDEEN       SUNNY     77  52  41 NE8       30.08F
WATERTOWN      SUNNY     76  52  43 NW3       30.10F
SISSETON         N/A     78  56  46 N5        30.07F
$$

SDZ017-020-022-023-036>040-048>070-310100-
SOUTHEAST SOUTH DAKOTA

CITY           SKY/WX    TMP DP  RH WIND       PRES   REMARKS
SIOUX FALLS    MOSUNNY   77  56  48 NW7       30.10F
HURON          SUNNY     81  53  37 NE7       30.07F
CHAMBERLAIN    SUNNY     82  54  38 SE5       30.07F
MITCHELL       SUNNY     80  56  43 VRB5      30.09F
YANKTON        SUNNY     77  55  47 CALM      30.10F
$$

ABBREVIATIONS USED IN REMARKS
   TC - TEMPERATURE IN CELSIUS
  WCI - WIND CHILL INDEX
   HX - HEAT INDEX
  VSB - VISIBILITY




USA.gov is the U.S. government's official web portal to all federal, state and local government web resources and services.